User: anonymous   Login
Location: Chuathbaluk
(61.5726°N, 159.2454°W)
Time: 12:31:45
(UTC+00:00)
Language:

XW-2F - Orbit

View from above orbital plane
View from above orbital plane
View from above satellite
View from above satellite

Ground track
Ground track

The orbit data is extracted from the following two-line orbital elements,

1 40910U 15049M   21138.13955962  .00001902  00000-0  94144-4 0  9996
2 40910  97.4722 143.7065 0012406 277.1499 149.4063 15.18957011313120
Epoch (UTC): 18 May 2021 03:20:57
Eccentricity: 0.0012406
inclination: 97.4722°
perigee height: 500 km
apogee height: 517 km
right ascension of ascending node: 143.7065°
argument of perigee: 277.1499°
revolutions per day: 15.18957011
mean anomaly at epoch: 149.4063°
orbit number at epoch: 31312

The dashed part of the orbit path shows where the satellite is in the earth's shadow,  

DLR